Location: Broekland
(52.3610°N, 6.2005°E)
Time: 09:59:17
(UTC+00:00)

Cosmos 1346 Rocket - Pass Details

Date: 19 May 2025
Orbit: 485 x 499 km, 81.2° (Epoch: 23 June)

Event Time Altitude Azimuth Distance (km) Brightness Sun altitude
Rises 21:06:32 0° 340° (NNW) 2,589 8.0 -11.1°
Reaches altitude 10° 21:08:48 10° 330° (NNW) 1,699 6.9 -11.3°
Maximum altitude 21:12:09 33° 266° (W) 847 4.1 -11.6°
Drops below altitude 10° 21:15:29 10° 201° (SSW) 1,677 4.9 -11.8°
Enters shadow 21:16:00 - 198° (SSW) 1,875 5.2 -11.9°
